Location: Newark
(34.1333°N, 7.9667°W)
Time: 01:24:13
(UTC+00:00)

AO-85 - Pass Details

Date: 14 June 2023
Orbit: 516 x 753 km, 64.8° (Epoch: 04 January)

Event Time Altitude Azimuth Distance (km) Brightness Sun altitude
Rises 20:46:26 0° 332° (NNW) 2,702 ? -11.4°
Reaches altitude 10° 20:48:34 10° 334° (NNW) 1,832 ? -11.8°
Maximum altitude 20:52:41 80° 60° (ENE) 589 ? -12.4°
Enters shadow 20:55:48 19° 148° (SSE) 1,453 ? -12.9°
